sat.trackr.live / text

‹ back to catalog

STARLINK-32342

NORAD 61217 · 2024-171T

PAYLOAD ACTIVE UNKNOWN

§ Identity

Operator
Country
US
Launch date
2024-09-20
Launch site
AFWTR
Launch vehicle
Mass (kg)
RCS (m²)

Purposes: comms

External: N2YO · Heavens-Above · Gunter

§ Orbital elements

Epoch: 2026-05-24T16:23:42.285984Z

Period
94.11 min
Inclination
53.1616°
Eccentricity
0.0002576
Mean motion
15.30193884 rev/d
Perigee alt
473.5 km
Apogee alt
477.0 km
Semi-major
6,853.4 km
B*
7.2193e-6
RAAN
329.4445°
Arg perigee
80.7830°
Mean anomaly
279.3462°
Rev number
9,491

§ Raw data

STARLINK-323421 61217U 24171T   26144.68312831 -.00000146  00000+0  72193-5 0  99992 61217  53.1616 329.4445 0002576  80.7830 279.3462 15.30193884 94916

JSON: /api/v1/satellites/61217 · /tle

For live sub-satellite position, see the globe view (requires WebGL).

§ Visibility from observer

Set your observer location to see the next 7 days of passes ≥ 10°. The values pass through the URL so the page stays shareable.

No JS? Fill the form by hand. The geolocation button needs JavaScript.